RYR30XF EIDW-LEGE

Flight info

Callsign RYR30XF
Flight time N/A
Altitude 37000
Route PESIT2J PESIT DCT BAKUR DCT GUBJE DCT GISOK DCT TACQI DCT MANIG DCT KORER UM616 TUPAR DCT CNA DCT SECHE DCT GAI DCT PPG A27 KANIG KANIG1D
Aircraft B738/M-SDE3FGILRWY/SB1

Departure

Time N/A
Airport Dublin Airport (EIDW)

Arrival

Time 2026-04-20 14:15
Airport Girona-Costa Brava Airport (LEGE)
Time Latitude Longitude Altitude Speed Heading
2026-04-20 13:59 42.93681 2.70880 18877 ft 347 kts 152°
2026-04-20 13:59 42.91636 2.72623 18534 ft 345 kts 151°
2026-04-20 14:00 42.89634 2.74329 18201 ft 343 kts 152°
2026-04-20 14:00 42.87616 2.76047 17856 ft 342 kts 152°
2026-04-20 14:00 42.85603 2.77758 17493 ft 340 kts 151°
2026-04-20 14:00 42.83600 2.79459 17162 ft 339 kts 151°
2026-04-20 14:01 42.81604 2.81154 16817 ft 337 kts 151°
2026-04-20 14:01 42.79621 2.82837 16478 ft 335 kts 151°
2026-04-20 14:01 42.77649 2.84509 16133 ft 333 kts 151°
2026-04-20 14:01 42.75681 2.86170 15794 ft 331 kts 152°
2026-04-20 14:02 42.73618 2.87489 15446 ft 326 kts 164°
2026-04-20 14:02 42.71467 2.88426 15119 ft 323 kts 166°
2026-04-20 14:02 42.69322 2.89298 14783 ft 321 kts 167°
2026-04-20 14:02 42.67181 2.90170 14444 ft 320 kts 166°
2026-04-20 14:03 42.65057 2.91050 14110 ft 319 kts 166°
2026-04-20 14:03 42.62946 2.91938 13778 ft 317 kts 166°
2026-04-20 14:03 42.60844 2.92831 13430 ft 316 kts 166°
2026-04-20 14:03 42.58753 2.93725 13106 ft 314 kts 165°
2026-04-20 14:04 42.56672 2.94616 12764 ft 313 kts 165°
2026-04-20 14:04 42.54605 2.95502 12477 ft 310 kts 165°
2026-04-20 14:04 42.52551 2.96381 12141 ft 309 kts 165°
2026-04-20 14:04 42.50505 2.97257 11815 ft 308 kts 165°
2026-04-20 14:05 42.48440 2.97991 11478 ft 304 kts 177°
2026-04-20 14:05 42.46371 2.97751 11150 ft 297 kts 197°
2026-04-20 14:05 42.44381 2.97005 10827 ft 295 kts 199°
2026-04-20 14:05 42.42414 2.96215 10507 ft 294 kts 199°
2026-04-20 14:06 42.40457 2.95427 10175 ft 293 kts 199°
2026-04-20 14:06 42.38517 2.94655 10022 ft 287 kts 198°
2026-04-20 14:06 42.36621 2.93916 9742 ft 280 kts 198°
2026-04-20 14:06 42.34770 2.93213 9465 ft 273 kts 197°
2026-04-20 14:07 42.32952 2.92543 9190 ft 268 kts 198°
2026-04-20 14:07 42.31166 2.91821 8879 ft 266 kts 199°
2026-04-20 14:07 42.29409 2.91111 8619 ft 259 kts 198°
2026-04-20 14:07 42.27672 2.90434 8348 ft 260 kts 197°
2026-04-20 14:08 42.25922 2.89781 8089 ft 258 kts 196°
2026-04-20 14:08 42.24216 2.89144 7819 ft 252 kts 197°
2026-04-20 14:08 42.22537 2.88474 7422 ft 251 kts 198°
2026-04-20 14:08 42.20862 2.87795 6953 ft 253 kts 198°
2026-04-20 14:09 42.19155 2.87125 6418 ft 257 kts 197°
2026-04-20 14:09 42.17426 2.86443 5849 ft 260 kts 197°
2026-04-20 14:09 42.15691 2.85773 5387 ft 256 kts 197°
2026-04-20 14:09 42.14009 2.85130 5011 ft 246 kts 197°
2026-04-20 14:10 42.12395 2.84517 4682 ft 237 kts 197°
2026-04-20 14:10 42.10839 2.83929 4367 ft 227 kts 196°
2026-04-20 14:10 42.09344 2.83360 4094 ft 220 kts 197°
2026-04-20 14:10 42.07880 2.82804 3866 ft 216 kts 196°
2026-04-20 14:11 42.06447 2.82262 3523 ft 211 kts 196°
2026-04-20 14:11 42.05051 2.81733 3225 ft 204 kts 196°
2026-04-20 14:11 42.03729 2.81229 2971 ft 190 kts 196°
2026-04-20 14:11 42.02495 2.80760 2711 ft 179 kts 195°
2026-04-20 14:12 42.01336 2.80320 2481 ft 168 kts 196°
2026-04-20 14:12 42.00246 2.79905 2276 ft 157 kts 195°
2026-04-20 14:12 41.99240 2.79525 2094 ft 147 kts 194°
2026-04-20 14:12 41.98288 2.79141 1866 ft 142 kts 192°
2026-04-20 14:13 41.97351 2.78806 1715 ft 141 kts 193°
2026-04-20 14:13 41.96398 2.78444 1504 ft 142 kts 192°
2026-04-20 14:13 41.95460 2.78093 1294 ft 138 kts 193°
2026-04-20 14:13 41.94538 2.77706 1000 ft 138 kts 195°
2026-04-20 14:14 41.93650 2.77391 830 ft 129 kts 193°
2026-04-20 14:14 41.92802 2.77069 621 ft 125 kts 195°
2026-04-20 14:14 41.91825 2.76715 587 ft 153 kts 193°
2026-04-20 14:14 41.90827 2.76332 470 ft 140 kts 194°
2026-04-20 14:15 41.90027 2.76032 436 ft 89 kts 195°
2026-04-20 14:15 41.89635 2.75874 418 ft 22 kts 198°
2026-04-20 14:15 41.89532 2.75881 413 ft 17 kts 134°
2026-04-20 14:15 41.89555 2.76019 410 ft 1 kts 61°
2026-04-20 14:16 41.89571 2.76052 410 ft 5 kts 57°
2026-04-20 14:16 41.89578 2.76066 411 ft 5 kts 56°
2026-04-20 14:16 41.89630 2.76106 413 ft 12 kts 18°
2026-04-20 14:16 41.89698 2.76134 417 ft 10 kts 16°
2026-04-20 14:17 41.89788 2.76169 421 ft 17 kts 16°
2026-04-20 14:17 41.89865 2.76198 425 ft 8 kts 15°
2026-04-20 14:17 41.89900 2.76228 426 ft 5 kts 64°
2026-04-20 14:17 41.89902 2.76277 425 ft 6 kts 97°
2026-04-20 14:18 41.89888 2.76354 422 ft 10 kts 112°
2026-04-20 14:18 41.89828 2.76388 420 ft 6 kts 187°
2026-04-20 14:18 41.89824 2.76387 420 ft 0 kts 189°
2026-04-20 14:18 41.89804 2.76380 419 ft 1 kts 195°
2026-04-20 14:19 41.89785 2.76397 419 ft 5 kts 123°
2026-04-20 14:19 41.89772 2.76449 418 ft 1 kts 107°
2026-04-20 14:19 41.89772 2.76450 418 ft 0 kts 107°